Starlink 31462

operational
NORAD ID: 59466 Int'l Des: 2024-068 Owner: SPXS Country: US Constellation: starlink
LEOCIRCULAR

Starlink 31462について

説明を読み込み中...

リアルタイム位置

3D地球を読み込み中...

次回通過

高度履歴

Altitude vs Time

uPlot chart will show altitude changes over time

軌道要素

1 59466U 24068M 26034.23128155 .00000668 00000-0 33773-4 0 9999
2 59466 42.9981 229.0245 0001011 269.4210 90.6526 15.27584772103253
Epoch: Feb 3, 2026 • Age: 9 hours

現在のステータス

高度 495.3 km
速度 7.62 km/s
衛星直下点 -42.25°S, 130.87°E
打ち上げ日 Apr 10, 2024
運用期間 1.8 years
タイプ internet

技術仕様

分類 Payload
質量 730.00 kg
乾燥質量 700.00 kg
総質量 730.00 kg
長さ 0.30 m
直径 4.10 m
スパン 29.00 m
形状 Box + pan
製造者 SPXS
バスタイプ Starlink V2M
フェーズステータス In Orbit
所有者/国 SPXS/US

大規模コンステレーション

Loading constellations...